Regional Weather Roundup
Issued by NWS

Home | Current Version | Previous Version | Graphics & Text | Print | Product List | Glossary On
Versions: 1 2 3 4 5 6 7 8 9 10 11 12 13 14 15 16 17 18 19 20 21 22 23 24 25 26 27 28 29 30 31 32 33 34 35 36 37 38 39 40 41 42 43 44 45 46 47 48 49 50
000
ASUS45 KABQ 232301
RWRNM
WEATHER ROUNDUP FOR NEW MEXICO
NATIONAL WEATHER SERVICE ALBUQUERQUE NM
500 PM MDT THU OCT 23 2014

NOTE: "FAIR" MEANS FEW OR NO CLOUDS BELOW 12,000 FEET AGL WITH NO
       SIGNIFICANT WEATHER OR OBSTRUCTIONS TO VISION.

      THIS PRODUCT IS RELEASED AS TWO VERSIONS.  ONE VERSION NEAR
      THE TOP OF THE HOUR CONTAINING PRELIMINARY DATA FROM ALBUQUERQUE
      AND OTHER STATIONS.  A FINAL VERSION WITH ADDITIONAL DATA IS
      ISSUED ABOUT 10 MINUTES AFTER THE HOUR.

NMZ501-503-504-510>518-240000-
NORTHWEST PLATEAU/NORTHCENTRAL MOUNTAINS

CITY           SKY/WX    TMP DP  RH WIND       PRES   REMARKS
FARMINGTON     SUNNY     71  30  21 W6        30.21S
LOS ALAMOS     SUNNY     64  32  29 E6        30.29S
SANTA FE       SUNNY     70  32  24 SW7       30.22S
TAOS           SUNNY     66  28  24 SW9       30.27S
ANGEL FIRE     FAIR      60  24  25 W16       30.33R

$$
NMZ402-403-502-505>509-240000-
WESTCENTRAL MOUNTAINS/SOUTHWEST MOUNTAINS

CITY           SKY/WX    TMP DP  RH WIND       PRES   REMARKS
GALLUP         SUNNY     71  32  23 SW3       30.26F
SILVER CITY    SUNNY     73  41  31 S9        30.22F

$$
NMZ407-409-411-412-240000-
SOUTHERN DESERTS

CITY           SKY/WX    TMP DP  RH WIND       PRES   REMARKS
LORDSBURG      FAIR      77  43  29 MISG      30.14S
DEMING         SUNNY     77  47  34 W5        30.15S
LAS CRUCES     SUNNY     77  47  34 S3        30.16F
HOLLOMAN AFB   SUNNY     78  42  27 N2        30.12F
T OR C         SUNNY     77  39  25 S8        30.15F

$$
NMZ519>523-240000-
CENTRAL VALLEYS/CENTRAL HIGHLANDS

CITY           SKY/WX    TMP DP  RH WIND       PRES   REMARKS
ALBUQUERQUE    MOSUNNY   74  34  23 NW7       30.19F
DOUBLE EAGLE   SUNNY     72  36  26 W3        30.22F
MORIARTY ARPT  FAIR      71  31  23 W9        30.23S
CLINES CORNERS SUNNY     67  31  26 NW18      30.25R
BELEN          FAIR      74  34  23 CALM      30.18F
SOCORRO        FAIR      75  40  27 CALM      30.17S

$$
NMZ524>526-539-540-240000-
SOUTHCENTRAL MOUNTAINS

CITY           SKY/WX    TMP DP  RH WIND       PRES   REMARKS
RUIDOSO        SUNNY     66  37  34 NW6G16    30.29S

$$
NMZ527>531-240000-
NORTHEAST HIGHLANDS/NORTHEAST PLAINS

CITY           SKY/WX    TMP DP  RH WIND       PRES   REMARKS
LAS VEGAS      SUNNY     69  29  22 S12       30.22S
RATON          SUNNY     71  29  21 S3        30.17R
CLAYTON        SUNNY     72  45  37 E5        30.13S

$$
NMZ532>537-240000-
EASTCENTRAL PLAINS

CITY           SKY/WX    TMP DP  RH WIND       PRES   REMARKS
TUCUMCARI      SUNNY     81  33  17 CALM      30.06S
CANNON AFB     SUNNY     78  43  29 W10       30.10S
CLOVIS AIRPORT SUNNY     79  39  24 W17       30.11S

$$
NMZ028-029-538-240000-
SOUTHEAST PLAINS

CITY           SKY/WX    TMP DP  RH WIND       PRES   REMARKS
ROSWELL        SUNNY     77  54  44 S9        30.09S
CARLSBAD       SUNNY     76  57  51 SE7       30.07F
HOBBS          SUNNY     77  54  44 S8        30.11S


$$



USA.gov is the U.S. government's official web portal to all federal, state and local government web resources and services.